Theta_e
341 341 341 344 349 348 345 344 343 343 344 343 344 344 343 342 342 343 343 345 346 345 346 345 344 347 347 345 345 345 346 345 344 344 344 342 337 331 330 334 335 336 337 337 339 339 340 340 339 340 339 340 340 340 340 339 338 335 334 335 337 337 337 336 334 335 339 340 339 341 341 340 339 338 337 336 333 331 330 332 332 332 335 338 340
341 340 341 345 349 349 347 344 343 343 344 344 343 343 343 344 343 343 342 343 346 346 346 346 346 347 347 346 346 345 344 344 343 344 342 342 340 332 328 334 335 336 338 338 339 339 339 340 339 339 339 340 339 340 340 340 339 338 336 334 333 335 336 337 334 333 337 340 340 341 342 341 340 340 339 337 335 334 331 329 330 332 333 335 339
341 340 343 346 348 350 348 346 345 345 345 343 342 342 344 345 342 342 341 342 347 346 345 348 347 347 347 346 346 344 343 344 344 343 342 342 339 332 329 333 335 336 338 338 339 339 339 339 339 340 339 339 340 339 340 341 341 340 340 338 336 335 336 337 336 333 334 338 340 339 341 341 340 340 339 339 338 338 336 332 329 329 331 333 336
341 342 345 347 349 349 349 348 347 346 345 341 341 342 344 344 341 341 339 342 347 344 345 349 348 347 346 345 345 344 343 344 345 344 344 340 335 333 332 332 335 336 337 337 338 339 339 339 339 339 339 339 339 339 340 341 341 341 342 342 340 338 337 337 336 335 333 334 338 338 339 339 340 340 339 338 338 338 338 336 332 328 328 330 333
341 345 348 347 349 348 347 347 345 344 343 341 342 344 343 342 339 337 336 342 347 342 344 349 349 347 346 345 344 343 344 344 345 344 343 340 336 337 336 334 335 336 337 337 338 339 339 339 339 339 339 339 339 339 340 340 341 342 342 343 342 341 340 338 336 336 335 333 334 336 337 338 339 339 338 337 337 338 338 337 335 331 328 327 329
340 345 349 348 349 346 344 346 345 343 342 342 344 342 339 337 335 337 337 344 348 346 346 348 347 347 346 345 344 343 344 344 345 343 343 344 341 341 340 338 337 336 336 337 337 339 339 338 338 338 338 338 339 339 340 341 342 342 342 342 343 343 342 340 337 337 338 336 332 333 335 337 339 339 338 337 335 336 337 338 336 333 328 325 325
339 343 348 349 349 347 346 348 346 344 341 340 341 338 336 335 337 340 341 344 349 348 348 348 347 346 346 346 344 344 344 344 345 343 344 345 344 343 342 343 342 339 338 339 338 337 338 338 338 338 338 337 338 338 340 341 342 342 343 342 342 343 343 342 341 339 339 339 336 334 333 334 338 339 338 337 336 336 337 337 338 335 330 325 323
340 344 347 348 349 350 350 348 345 343 340 338 337 336 338 340 340 344 344 345 349 348 347 348 347 346 345 345 344 344 345 345 344 345 346 346 346 345 343 343 343 340 339 341 342 339 339 341 342 343 342 340 338 338 340 341 342 344 345 345 343 342 342 343 343 342 341 341 340 339 334 332 334 337 338 337 336 336 337 337 338 338 333 326 323
341 345 348 348 350 350 348 345 342 342 340 336 336 337 341 343 343 346 349 348 348 347 346 347 347 345 344 344 344 345 346 345 345 346 347 347 348 347 346 345 343 341 340 343 345 345 344 344 345 345 345 344 342 340 341 341 341 342 345 346 346 343 342 342 343 343 342 342 342 341 338 333 332 333 336 337 336 336 337 337 337 338 337 330 324
342 346 349 349 350 348 344 342 342 342 339 335 338 340 343 345 343 345 349 350 349 347 346 346 345 344 343 343 344 344 345 345 346 347 347 347 348 349 350 349 347 346 345 346 348 348 347 346 345 345 345 345 345 345 344 344 343 343 345 347 346 343 341 342 343 343 343 343 343 341 340 337 333 331 333 335 336 336 337 337 337 337 338 335 327
342 345 349 349 347 345 343 342 341 339 337 337 339 340 344 348 348 345 344 348 351 349 348 347 346 344 343 344 344 345 346 345 346 346 347 348 348 349 350 350 350 349 347 348 349 349 347 346 346 346 348 347 346 346 346 346 346 347 347 346 345 343 342 342 342 343 343 344 343 343 343 340 337 333 331 332 334 335 337 337 337 337 338 338 333
343 344 347 347 346 344 341 339 338 337 336 339 341 341 344 349 351 348 345 347 349 349 349 347 346 345 345 345 345 345 346 345 345 345 346 347 348 348 349 349 350 349 348 348 349 349 348 346 345 346 350 349 345 345 346 346 346 347 347 346 346 345 344 343 342 342 343 344 344 344 344 342 340 337 333 332 332 333 335 337 337 337 337 338 338
344 345 345 345 344 342 338 337 336 336 339 344 347 347 347 349 349 347 348 350 348 347 347 347 347 346 345 345 345 344 344 345 345 345 346 347 347 348 348 348 348 348 349 348 346 348 350 348 345 347 350 349 348 347 346 346 346 346 347 347 347 345 344 344 343 342 344 344 344 344 344 343 342 341 337 335 333 333 334 336 337 337 337 337 339
344 345 345 344 343 341 339 337 336 337 342 347 349 348 347 347 347 345 348 350 349 348 347 347 347 345 345 344 344 344 344 344 344 345 345 346 346 347 347 347 347 347 348 347 344 345 349 349 348 349 349 347 350 351 348 347 347 346 347 348 347 345 344 344 343 343 344 345 344 343 343 343 344 343 340 339 336 334 334 335 336 336 336 337 338
345 345 344 343 342 341 339 337 336 340 344 346 346 346 345 346 346 346 349 349 348 349 347 347 347 345 345 345 344 343 344 345 345 344 345 345 345 345 346 345 345 346 346 346 345 346 347 348 349 349 346 345 348 350 351 351 349 347 348 347 346 345 344 343 343 343 344 345 345 344 344 343 344 344 342 341 339 336 335 335 336 336 336 337 337
345 345 344 343 342 340 339 337 338 343 346 345 346 346 345 346 347 346 348 348 347 347 347 346 347 346 345 344 344 344 344 344 345 345 344 344 344 343 344 344 344 345 345 345 346 346 348 348 349 348 346 346 346 347 352 353 349 347 347 346 345 344 343 343 343 344 345 346 346 345 345 344 344 344 343 342 341 339 337 336 336 337 337 336 337
344 344 343 343 342 339 339 340 341 345 348 347 347 349 347 348 349 345 345 349 348 345 346 347 346 346 346 345 344 344 343 342 344 344 343 343 343 343 343 343 344 344 344 345 345 346 347 347 348 349 347 348 347 347 353 355 351 348 347 345 344 344 343 343 343 344 345 345 345 345 345 345 344 344 344 343 342 341 339 338 337 337 337 337 337
343 342 342 342 341 337 336 342 344 345 349 350 349 350 349 349 347 344 346 349 350 348 345 345 346 345 346 347 345 344 343 343 343 343 343 344 343 343 343 342 344 344 344 345 345 346 347 347 349 350 350 350 349 350 354 354 350 350 349 344 343 344 343 343 343 344 345 345 345 345 345 345 345 344 343 344 343 343 341 339 339 338 338 338 338
341 340 341 340 339 337 336 342 346 347 349 351 351 350 349 349 347 346 350 350 349 350 347 344 345 345 344 344 344 344 344 344 343 343 344 343 343 344 343 343 344 344 344 345 345 346 347 348 349 350 351 351 350 352 354 353 349 347 346 342 340 342 343 343 344 344 345 345 345 345 345 345 345 344 343 344 343 343 343 341 340 340 340 340 340
341 339 339 339 337 336 338 341 347 349 349 350 352 349 348 351 348 346 349 348 346 349 350 346 345 345 345 344 344 344 344 344 344 344 343 343 343 344 343 344 344 344 345 345 346 347 348 349 350 351 352 352 352 353 354 353 348 345 343 341 339 339 341 343 343 344 344 345 345 345 345 345 345 345 344 344 344 343 343 342 341 341 341 341 341
339 339 338 340 338 336 338 340 344 349 350 350 351 350 351 351 346 342 344 346 347 349 349 348 346 344 344 345 345 345 344 344 344 344 343 343 344 344 344 344 345 345 345 346 346 347 348 349 349 350 352 352 352 352 354 352 350 349 345 340 339 338 340 342 343 344 344 344 345 345 346 345 345 345 345 344 344 344 344 343 342 342 342 342 342
338 339 339 340 338 335 337 338 340 347 350 351 350 351 352 348 344 344 346 347 349 350 349 348 347 345 344 344 345 345 345 344 343 343 342 342 343 343 343 344 345 346 346 347 347 347 348 349 350 351 352 352 352 352 352 350 350 352 346 340 339 338 338 338 340 342 343 343 344 345 345 345 345 345 344 345 345 345 345 344 343 343 343 343 343
341 340 339 339 339 336 337 338 340 345 348 349 351 352 350 346 347 348 347 345 347 349 350 348 347 346 345 345 345 344 345 345 344 344 343 343 343 342 342 343 344 345 346 347 347 348 348 349 350 351 352 353 353 353 350 346 345 346 343 341 340 339 338 337 337 338 340 341 342 343 345 345 346 345 344 345 345 345 345 345 345 344 344 344 344
345 343 340 341 341 337 338 341 342 344 347 348 351 352 348 346 349 349 345 343 343 346 349 348 347 346 345 345 345 344 344 344 344 344 344 344 344 343 342 342 343 344 346 347 347 348 348 349 349 350 351 352 353 351 348 346 345 343 343 343 341 340 340 338 335 335 336 337 337 339 342 344 345 345 345 345 346 346 346 345 345 345 345 345 345
347 347 343 343 343 338 336 342 343 343 345 347 350 353 350 350 351 349 347 344 342 344 347 350 348 346 346 345 345 344 344 344 344 343 344 344 343 344 344 343 343 344 346 346 347 347 348 348 349 350 350 351 352 350 349 352 350 344 345 345 342 340 341 340 338 335 335 336 335 336 337 341 345 346 346 346 346 347 347 346 346 346 345 346 346
346 348 346 345 346 342 335 338 341 339 341 344 348 351 351 352 352 350 349 347 345 346 346 349 349 347 347 347 345 345 345 345 345 343 344 343 343 344 345 345 343 344 346 346 346 346 347 347 348 350 350 351 352 348 348 352 351 345 345 346 343 341 340 341 340 339 339 339 339 338 336 337 342 346 346 346 346 346 346 346 346 346 346 346 346
345 347 348 347 348 346 339 336 337 336 336 338 342 347 347 349 352 350 350 350 348 346 346 349 350 348 348 347 347 347 346 345 345 344 344 344 344 345 345 347 345 345 346 345 345 346 346 347 348 349 349 348 348 345 344 348 348 345 345 349 349 344 341 342 341 341 341 341 341 342 340 338 338 341 344 345 346 345 345 346 347 346 346 346 346
346 347 347 346 347 349 344 340 338 337 338 337 341 347 346 346 349 347 348 352 350 347 348 350 350 348 348 348 348 347 346 346 345 345 346 345 346 346 345 346 347 347 346 345 346 346 346 347 348 350 349 346 347 346 344 345 346 344 344 349 351 347 344 343 341 341 342 342 343 343 342 339 336 338 340 343 347 348 347 347 348 347 347 347 347
346 347 347 343 344 347 347 345 342 339 341 340 342 348 347 346 348 345 345 350 352 350 350 351 350 349 349 348 347 347 347 347 346 345 347 346 346 346 345 346 347 347 347 346 347 346 346 347 348 350 350 347 349 350 346 344 346 344 345 350 353 349 345 344 343 342 342 342 344 344 342 339 336 336 338 341 344 347 348 348 348 348 348 348 348
347 347 347 343 339 342 344 347 347 344 345 345 346 348 346 346 349 348 345 347 351 352 350 351 351 349 349 349 348 347 347 347 346 346 347 347 346 346 345 345 346 346 346 346 346 346 346 347 348 350 349 348 351 352 349 347 345 344 347 352 354 349 344 343 343 343 343 343 344 344 343 340 338 336 337 338 339 341 343 345 347 347 348 348 348
348 347 346 342 340 341 342 345 349 347 346 347 348 348 347 346 349 350 348 346 348 350 350 351 351 350 350 350 349 348 348 347 346 346 347 347 347 347 346 346 346 346 347 347 346 345 346 345 347 349 350 350 352 352 352 351 346 343 346 348 348 346 343 342 342 342 342 342 342 342 341 340 340 339 338 339 338 338 338 340 342 344 345 346 347
349 348 345 342 343 345 344 345 348 349 347 346 348 349 347 346 349 350 350 347 346 348 349 349 350 350 350 350 350 349 349 348 347 347 347 348 348 347 346 346 347 347 348 348 347 345 345 345 345 346 348 351 351 351 352 352 348 343 344 344 343 343 344 343 342 341 341 341 341 341 340 339 339 339 339 340 339 339 338 338 338 339 341 343 345
349 350 347 343 343 345 346 346 347 348 349 347 347 348 347 346 347 349 352 352 348 347 348 346 347 350 351 351 351 351 350 349 348 347 346 347 348 347 347 346 346 346 347 348 347 346 345 345 345 345 346 348 350 351 351 352 351 346 343 345 343 342 344 344 344 343 342 342 342 341 341 341 340 339 339 339 339 340 339 339 339 338 338 339 341
349 350 350 347 344 345 346 347 347 348 349 348 347 347 347 346 346 348 351 352 348 346 349 349 349 351 351 351 350 350 350 349 348 347 346 346 347 346 346 347 346 345 346 347 347 346 346 346 345 345 345 346 348 351 350 350 351 348 345 346 346 344 344 345 347 347 344 343 344 344 343 342 340 339 339 338 339 339 339 339 339 339 339 338 338
349 349 350 349 346 345 346 346 347 348 349 349 347 347 347 347 347 347 348 350 348 346 349 351 350 350 351 351 350 349 349 349 349 347 346 346 346 347 347 346 346 344 345 347 348 348 346 346 346 345 345 345 346 349 350 348 348 346 345 347 348 347 345 345 348 350 347 344 344 345 345 344 342 340 339 338 338 338 338 339 339 339 340 340 340
349 348 350 351 348 347 346 347 347 347 348 350 349 348 346 346 347 347 347 349 349 349 349 350 350 350 350 350 349 348 348 349 350 349 347 348 348 348 347 346 346 345 345 347 349 350 348 347 347 346 346 346 345 345 346 347 346 345 344 346 349 348 346 344 345 349 348 345 345 345 345 344 343 341 340 339 339 339 339 339 339 339 340 340 340
349 349 349 350 350 348 347 347 347 346 347 349 350 349 346 346 346 347 347 348 350 351 350 350 350 350 350 350 349 348 348 349 350 349 348 349 349 348 348 347 347 347 347 348 348 350 350 349 348 348 347 347 346 345 344 343 345 348 345 344 346 348 347 346 345 348 348 345 345 345 345 345 344 343 342 341 341 340 340 340 340 340 340 340 341
349 349 348 348 349 350 348 347 347 347 347 348 349 349 347 346 346 346 346 347 349 350 350 350 350 350 350 350 349 348 348 349 350 350 349 349 349 348 348 348 348 348 348 349 349 349 349 348 347 347 347 346 346 346 346 343 345 349 349 347 346 345 345 346 347 349 349 347 345 345 344 345 345 345 345 344 343 342 342 342 342 342 341 341 341
348 349 349 348 349 351 350 347 346 347 348 348 349 349 347 346 346 345 345 346 347 349 350 350 350 350 350 350 350 350 349 349 349 348 348 349 349 348 348 349 349 348 347 347 347 348 348 347 346 346 346 346 346 346 347 345 342 344 347 348 348 348 348 347 345 347 350 349 347 346 346 344 344 344 344 344 344 342 341 340 340 341 342 342 342
348 349 349 348 347 347 348 347 344 346 348 349 350 350 348 346 345 345 344 344 345 346 348 348 349 350 350 350 349 350 350 350 350 349 349 349 349 348 347 347 348 349 348 346 345 346 347 346 345 345 345 346 346 346 347 346 343 342 344 345 347 349 351 352 348 346 347 348 348 349 349 347 345 344 343 343 343 341 338 337 336 337 338 340 342
348 349 349 348 347 345 345 345 345 346 348 348 348 349 349 348 346 345 345 344 344 344 345 347 347 349 350 349 349 350 350 351 350 348 347 348 348 347 347 347 347 348 347 345 345 346 347 347 346 346 346 346 346 346 347 348 346 345 347 348 348 348 350 352 352 349 346 345 347 348 349 348 346 344 344 343 342 342 340 338 337 336 335 336 338
348 349 348 348 347 345 345 345 344 346 347 346 346 346 346 346 346 346 346 345 345 344 344 345 346 347 348 348 348 348 349 349 348 345 342 344 344 344 343 344 345 346 345 345 346 346 346 347 346 346 346 346 346 346 347 348 349 349 350 352 354 353 352 351 352 351 347 344 345 346 346 346 346 345 345 343 342 342 341 340 339 337 336 336 336
348 348 348 348 347 345 345 345 345 346 347 347 346 345 344 344 345 348 349 348 348 347 346 346 346 345 345 346 347 347 347 347 345 341 339 340 340 340 339 336 337 339 341 343 346 347 348 348 347 346 346 346 346 347 347 347 348 349 350 352 355 357 355 353 353 352 350 346 345 346 346 346 346 346 346 345 343 342 342 340 339 338 338 337 337
348 348 347 347 346 345 346 347 347 347 347 347 347 346 345 343 343 346 349 349 350 350 349 348 347 346 345 345 346 346 347 347 343 339 339 340 338 335 334 333 332 334 335 336 339 343 346 348 348 347 347 348 348 348 348 349 348 348 349 351 353 355 354 352 352 353 353 350 346 346 346 346 347 347 345 344 343 342 342 342 340 340 340 339 339
348 348 347 346 345 345 346 347 347 347 346 347 346 345 345 344 344 345 347 348 349 350 350 350 350 349 348 348 348 347 347 348 345 342 342 342 339 335 333 334 335 335 335 334 333 335 338 342 346 347 346 346 348 347 348 349 349 349 349 350 351 353 352 349 348 348 351 351 348 346 346 346 349 351 349 346 345 341 340 341 341 340 340 340 340
346 346 345 345 345 345 346 346 346 346 346 346 346 344 344 344 344 344 345 347 349 348 348 349 351 351 349 348 348 348 348 348 348 346 344 344 343 340 338 339 339 338 338 337 334 333 334 337 342 344 342 342 344 344 345 347 347 346 348 348 350 352 354 353 350 348 348 348 346 346 346 346 348 351 351 350 349 345 339 338 338 338 339 341 341
345 344 344 345 345 345 346 346 346 346 346 345 345 345 344 343 344 345 345 346 348 348 346 347 348 348 347 345 345 346 346 346 346 346 345 345 345 344 343 342 343 343 344 344 342 341 342 341 341 342 341 341 342 342 343 345 345 343 345 346 347 348 349 351 351 349 348 348 347 348 348 345 346 350 351 350 351 349 345 341 339 336 336 338 339
345 345 344 345 345 345 346 346 346 346 346 345 345 344 344 344 344 345 345 346 347 348 349 349 347 345 345 345 344 344 344 344 344 343 343 343 344 345 345 344 346 347 346 345 345 346 347 345 344 345 345 343 343 344 343 344 344 345 347 349 350 349 349 348 349 349 350 350 351 351 351 349 348 350 351 349 349 349 347 343 340 335 332 333 335
348 347 347 346 346 346 347 346 346 346 345 345 344 343 343 344 344 345 346 345 345 346 348 348 346 345 345 344 343 344 344 344 344 343 343 342 343 345 344 344 346 346 343 341 341 343 344 344 344 345 345 344 344 345 345 345 345 345 347 348 349 350 351 350 350 350 349 349 350 351 352 351 348 348 349 349 348 347 345 343 341 338 333 332 332
347 347 347 347 346 346 346 346 346 345 345 345 344 343 343 343 344 344 345 345 345 346 347 347 345 345 346 345 344 344 344 344 343 343 343 343 344 345 344 344 345 345 342 341 341 342 343 343 343 344 344 344 344 345 345 345 346 344 344 345 346 347 348 348 347 347 347 347 347 349 349 348 345 346 349 349 348 346 345 345 346 344 338 334 333
346 346 346 346 346 345 345 345 345 345 345 345 344 343 343 343 343 343 343 344 345 346 348 348 347 346 346 345 344 344 343 343 343 343 343 344 345 345 345 345 347 346 343 343 343 343 344 343 343 343 344 343 344 344 344 345 345 344 343 344 345 345 346 346 345 345 345 344 344 346 346 345 345 347 348 349 349 347 345 346 347 347 345 340 337
Wind_Speed
16 15 14 12 11 10 11 12 12 13 13 13 13 11 11 11 12 12 12 11 9 9 9 9 10 7 6 6 4 4 3 2 2 2 3 3 5 7 9 8 8 8 7 7 6 6 6 6 6 5 5 5 5 5 5 5 5 5 4 4 4 5 6 6 6 6 7 8 8 8 8 9 9 9 8 8 9 9 9 9 8 7 7 7 7
16 16 15 13 13 11 10 12 12 13 13 13 13 12 12 11 12 12 12 12 9 9 10 9 9 7 7 6 4 4 3 3 3 2 3 3 4 7 8 8 8 8 7 7 7 6 6 6 5 5 5 5 4 4 4 4 4 4 4 3 3 4 5 6 7 7 7 8 8 8 8 9 10 9 9 9 9 9 9 8 8 7 7 7 7
15 15 15 13 13 12 12 12 12 12 12 13 13 13 12 11 13 12 12 12 9 10 11 8 8 7 7 6 4 4 4 3 3 3 3 4 5 7 8 8 7 7 6 6 5 5 5 5 5 4 4 4 3 3 4 4 4 3 3 2 1 2 4 6 6 7 7 7 8 8 8 9 10 10 9 10 10 10 9 8 7 6 6 7 6
15 14 13 14 14 13 14 13 13 13 13 14 14 13 12 12 13 13 14 13 9 12 13 8 8 7 7 6 4 5 4 3 3 3 4 4 7 7 8 8 7 5 5 4 4 3 3 3 3 3 3 3 2 2 2 2 2 2 2 2 1 1 2 4 5 6 5 6 7 7 7 8 9 10 10 10 11 10 10 9 8 6 5 6 6
14 13 13 14 15 15 15 15 14 15 15 15 14 13 12 13 13 14 15 12 9 13 12 8 7 7 7 5 5 5 4 4 3 4 4 4 5 6 6 7 6 5 4 3 2 1 2 2 2 2 2 2 2 1 1 0 1 1 2 2 1 1 1 2 3 4 4 5 6 6 6 7 7 8 9 10 10 10 10 9 8 7 5 4 5
15 15 14 13 14 15 15 15 15 15 15 15 14 13 14 14 14 13 13 11 9 11 10 8 7 7 6 6 6 5 4 4 3 4 5 4 5 5 5 5 4 4 4 3 1 1 1 1 1 2 2 2 2 2 2 1 1 0 1 1 1 1 1 1 2 3 3 4 5 5 5 5 6 7 8 9 9 10 10 10 9 8 6 4 3
17 16 16 15 14 15 14 14 15 15 14 15 14 14 15 14 14 12 11 11 9 9 9 8 7 7 6 6 6 6 5 4 4 4 5 4 4 4 5 5 4 3 3 2 1 1 1 1 1 1 2 2 3 3 3 3 2 1 1 1 1 1 0 1 1 1 2 3 3 3 3 4 4 5 6 8 8 9 10 10 9 9 8 6 4
17 16 16 16 15 15 15 15 16 15 15 16 16 16 15 13 13 11 10 10 9 9 9 7 7 7 7 7 6 6 5 4 5 4 4 5 4 4 4 4 4 4 3 2 1 1 1 1 1 1 1 1 3 3 4 4 3 2 1 2 2 1 1 0 0 1 1 2 2 1 2 3 3 4 5 6 7 8 9 10 10 9 9 7 5
17 16 16 15 15 15 16 17 17 16 16 17 16 16 14 13 13 11 10 10 9 9 9 8 7 7 8 7 7 7 5 5 5 5 5 5 4 4 3 3 3 3 3 2 2 2 2 2 1 2 2 1 1 2 3 4 4 4 3 3 3 2 1 1 1 1 1 1 1 1 1 2 2 3 4 5 6 7 8 9 9 9 9 8 7
17 17 16 15 15 16 17 17 18 18 18 18 16 15 14 13 13 12 11 9 8 9 8 8 8 8 8 8 8 7 5 5 6 6 5 5 5 4 4 3 2 3 4 5 3 2 2 1 0 1 1 1 1 1 2 3 4 5 4 4 3 3 2 2 2 1 1 1 2 3 2 1 2 2 3 3 4 6 7 8 8 9 9 9 8
17 18 17 16 16 16 17 19 19 19 19 18 16 16 15 12 11 12 13 11 8 8 8 8 8 8 8 8 8 7 6 6 6 6 6 5 5 4 4 3 3 3 4 5 3 2 2 1 1 2 1 2 2 1 2 2 4 4 4 4 3 3 3 2 3 2 2 1 2 3 3 2 2 1 2 2 3 4 5 6 7 8 8 9 8
18 19 18 17 16 16 18 20 20 19 18 18 17 16 15 13 11 12 12 10 9 8 8 8 8 7 8 7 7 8 7 7 7 7 6 6 5 5 5 4 4 4 3 3 3 3 4 3 2 1 1 4 3 2 3 3 4 4 4 3 3 3 3 3 3 3 3 2 1 3 3 2 2 1 1 1 2 3 4 5 6 7 7 8 8
18 19 19 17 17 18 20 21 20 19 18 17 15 14 15 14 13 13 10 8 9 9 9 8 7 8 8 8 8 8 8 8 7 7 7 6 6 6 6 5 4 5 4 4 4 3 4 5 3 1 2 3 3 3 3 3 3 4 3 3 3 3 3 3 3 3 3 2 1 3 3 3 3 1 1 1 1 2 3 3 4 5 6 7 7
19 20 18 18 18 19 20 21 20 19 18 17 17 16 16 14 13 12 10 10 10 9 10 9 7 8 8 8 9 8 8 8 8 7 7 7 6 6 6 5 5 4 4 4 4 1 2 4 4 3 3 2 1 3 3 1 2 3 3 3 4 4 3 3 3 3 4 3 2 2 3 3 3 3 2 2 1 1 2 2 2 3 4 5 6
19 20 19 19 19 19 20 20 19 18 18 18 18 17 17 14 13 12 11 11 10 8 10 10 7 7 8 8 9 10 8 7 8 8 8 7 7 7 5 5 5 5 4 4 4 2 3 3 3 4 4 2 1 2 1 2 2 2 3 3 3 3 2 3 4 4 4 4 3 2 2 2 3 3 3 2 2 2 2 1 1 1 2 3 4
19 20 20 20 20 19 20 20 19 18 18 18 17 16 16 14 12 14 13 10 10 9 10 9 7 6 7 7 8 8 6 7 10 8 8 8 7 6 5 4 5 4 3 3 3 3 4 3 3 5 4 1 2 1 0 2 3 2 2 3 2 2 2 3 4 5 5 4 3 2 2 2 3 3 3 3 3 2 2 2 1 0 1 2 2
20 21 20 21 20 20 21 21 19 18 17 16 16 13 13 13 12 15 15 11 9 10 9 8 7 7 6 6 6 5 5 7 8 7 7 9 8 6 5 5 5 4 3 2 1 2 3 3 4 4 3 1 2 1 2 2 3 2 2 1 1 1 2 3 4 5 5 5 4 3 2 2 2 3 4 4 3 3 3 3 2 1 0 1 1
21 22 22 21 20 20 23 21 19 19 16 14 13 12 12 13 14 14 13 12 9 8 9 8 7 7 6 4 3 4 5 6 7 6 3 4 7 6 5 4 5 3 2 2 1 2 2 3 3 3 2 2 1 1 1 2 2 1 1 1 0 0 1 3 5 5 5 5 4 4 3 3 3 3 3 4 4 4 4 3 3 2 1 1 0
22 23 23 23 22 21 23 21 18 18 17 14 12 13 13 11 13 14 11 11 11 7 8 8 7 6 6 5 3 2 2 3 5 6 3 3 5 7 6 4 4 3 2 2 2 3 3 3 3 2 2 2 0 2 1 1 1 1 1 1 1 1 1 2 4 5 5 5 4 4 3 3 3 3 3 4 4 4 4 4 3 3 2 1 1
22 24 25 24 23 23 23 22 19 16 16 14 12 12 13 11 14 15 13 13 12 8 6 7 7 6 5 5 3 2 2 2 3 4 5 6 5 5 6 5 4 4 3 3 3 3 3 3 3 2 2 2 1 2 2 1 1 1 1 1 2 1 1 2 3 4 5 5 4 4 4 3 3 3 3 4 4 5 4 4 4 3 3 3 2
23 24 26 24 24 24 24 24 21 17 15 14 13 13 12 13 15 16 15 12 11 8 6 6 6 6 5 4 3 2 3 4 4 4 7 9 8 7 7 6 5 4 3 3 2 2 3 2 2 2 2 2 1 2 2 1 0 1 2 2 2 2 1 2 3 3 4 4 4 4 4 3 3 4 4 4 4 5 4 4 4 4 4 4 4
24 25 26 25 24 25 25 25 22 18 16 14 14 13 14 15 15 14 13 12 10 8 6 6 6 6 6 4 4 3 3 4 5 4 5 5 5 7 7 6 7 5 3 3 3 2 3 2 2 2 2 1 1 2 2 1 1 1 2 2 2 2 1 1 1 2 3 3 4 4 4 4 4 4 4 4 5 4 4 4 4 4 5 5 5
23 24 26 26 25 24 24 25 22 19 17 16 14 14 16 16 14 13 14 14 12 9 6 6 6 6 6 6 5 4 3 3 3 3 3 2 1 2 5 4 6 6 4 3 3 2 2 1 1 1 1 2 1 2 2 1 1 1 1 2 1 0 0 0 0 2 2 3 3 4 4 5 5 5 4 5 5 5 5 5 5 5 5 5 5
21 23 26 26 26 26 25 23 22 20 19 17 15 14 16 15 13 15 15 15 14 11 8 6 6 7 6 7 7 5 4 3 3 2 2 2 1 1 3 3 3 5 5 3 2 2 1 1 1 1 1 1 2 2 2 1 1 1 2 2 1 0 1 1 0 1 1 2 2 3 4 4 5 5 5 5 5 6 6 5 6 6 6 6 6
21 22 25 26 26 27 27 24 23 23 21 19 16 14 14 13 14 16 15 15 15 12 10 7 7 8 7 6 6 5 4 3 3 3 2 2 2 1 2 2 2 4 4 2 2 1 1 1 1 1 0 1 1 2 2 1 3 3 2 2 2 1 1 1 1 1 1 1 2 2 3 4 5 5 5 5 6 6 7 6 6 6 6 6 6
24 22 23 24 24 26 29 27 26 26 25 22 19 18 18 15 14 15 14 14 14 13 12 8 7 8 7 6 6 5 5 4 2 2 2 2 2 2 2 1 1 3 3 2 1 1 2 2 1 1 1 1 1 2 1 2 4 3 3 3 2 1 1 2 3 2 2 3 3 3 4 4 5 6 6 6 6 6 6 7 7 7 7 7 7
25 24 24 24 24 24 28 29 28 27 26 24 21 20 22 19 16 15 14 13 14 15 13 9 9 9 8 7 6 6 5 5 4 3 2 2 1 2 2 1 1 1 2 2 1 0 1 2 2 1 1 2 2 2 2 2 3 3 3 2 2 2 2 3 3 3 4 4 4 5 5 5 5 6 7 7 7 7 6 7 7 7 7 7 8
24 25 26 26 25 24 26 27 28 27 25 25 22 20 21 21 19 20 17 13 13 15 13 11 10 10 9 8 8 6 6 5 5 4 3 2 1 1 1 1 1 1 1 1 1 1 1 1 1 1 1 3 3 3 3 2 3 4 3 2 4 4 3 4 4 4 5 5 5 6 6 6 6 6 6 7 8 8 8 8 8 8 8 8 8
23 25 27 29 28 27 26 26 26 27 25 25 24 21 21 21 20 22 22 16 13 15 14 12 11 10 10 9 9 8 6 6 6 5 4 4 2 2 2 2 2 2 2 2 1 2 2 2 2 1 2 3 2 2 3 3 3 4 4 2 5 6 5 5 5 6 7 7 7 7 6 7 6 6 6 6 8 9 9 10 9 10 10 10 10
23 24 27 30 31 30 28 26 25 26 25 24 23 22 22 22 20 21 23 20 16 15 15 13 12 12 11 10 10 10 8 8 7 6 6 5 4 4 3 3 3 3 3 3 4 4 3 3 3 3 4 3 2 3 3 3 3 4 3 3 6 7 7 6 6 7 7 8 8 8 7 7 8 7 7 7 8 9 10 11 11 12 12 12 12
24 26 29 31 31 31 31 28 26 26 26 25 23 23 23 22 21 20 21 22 20 17 16 15 13 12 12 11 11 10 9 9 8 7 7 6 6 5 4 4 4 4 4 5 6 5 4 4 3 3 4 3 3 4 4 4 4 4 4 4 6 7 8 8 7 8 8 9 9 9 8 8 9 10 9 9 9 9 10 10 11 13 14 14 14
26 27 31 31 30 30 31 30 27 26 26 26 24 23 24 23 21 19 19 22 22 19 18 17 14 13 13 13 12 11 10 10 9 9 8 8 8 7 7 6 6 6 6 6 7 7 7 6 6 4 4 4 5 6 6 7 7 6 6 6 7 6 8 8 8 8 9 9 10 10 10 9 10 11 11 11 11 11 10 11 11 12 13 14 15
29 27 30 32 31 30 30 29 28 27 26 27 25 23 24 24 23 21 18 19 22 21 19 19 16 14 14 14 13 12 11 11 11 11 11 10 10 9 9 9 8 8 8 8 9 10 9 8 7 7 6 6 7 8 9 9 9 9 9 9 9 8 8 9 9 9 10 10 11 11 11 11 11 11 12 12 12 12 12 12 12 12 13 14 15
33 29 28 31 31 30 30 29 29 28 27 27 26 25 25 25 25 23 21 20 24 23 19 18 18 15 14 15 15 13 12 12 12 12 12 11 11 11 10 10 9 9 9 9 10 10 10 10 9 9 8 8 8 9 11 11 11 12 13 12 12 11 10 10 11 11 10 10 11 12 12 12 13 13 13 13 13 14 14 13 13 13 14 14 15
35 32 28 28 30 30 29 29 29 28 27 27 27 26 25 25 25 25 22 21 23 23 20 19 19 17 15 15 16 15 13 13 13 13 13 12 12 11 11 10 10 10 9 10 11 11 12 11 11 10 10 9 9 9 11 13 13 14 15 14 15 14 13 12 12 13 13 11 12 13 13 14 14 14 14 15 15 15 15 15 15 15 15 15 15
33 33 30 28 29 30 29 29 29 29 28 27 27 27 26 25 25 24 24 22 21 21 21 20 19 18 17 16 16 16 15 14 13 13 12 12 12 11 11 11 11 11 10 11 12 12 13 13 13 13 12 12 12 12 13 15 15 16 16 16 16 16 17 15 13 14 15 14 13 14 15 15 16 15 15 15 15 16 16 16 16 16 16 17 17
32 33 33 30 28 29 30 28 27 29 29 27 26 27 26 25 24 24 24 23 21 20 20 20 19 18 18 17 16 16 16 16 15 14 13 13 12 12 12 12 11 11 11 11 12 12 13 15 15 15 15 15 15 15 16 17 16 16 17 18 18 18 18 18 16 16 17 16 14 15 16 16 17 17 16 17 16 16 16 16 16 17 17 18 19
31 32 33 30 27 27 29 28 26 26 27 27 26 26 26 24 24 23 23 23 22 21 20 20 19 19 18 18 17 17 17 17 16 15 14 14 13 12 12 12 12 12 12 12 13 14 15 16 16 17 17 16 17 17 18 19 17 16 18 18 19 19 18 19 18 17 18 18 16 15 16 17 17 18 18 18 18 18 17 17 17 17 18 19 20
30 30 31 31 28 26 26 28 28 26 25 24 24 25 25 25 24 23 23 23 23 22 21 20 20 20 19 19 19 18 18 18 18 17 15 15 14 14 13 13 13 14 14 14 15 15 16 17 17 17 17 17 17 17 17 19 19 18 18 20 20 20 19 20 19 18 19 19 19 18 18 18 18 18 18 18 18 18 18 18 18 18 19 19 20
31 30 30 32 32 29 26 27 28 26 24 23 22 22 23 24 23 22 22 23 23 23 22 21 20 20 20 20 20 19 19 19 19 18 17 16 15 15 15 14 13 14 15 15 16 16 17 17 17 17 17 17 18 18 18 20 21 20 19 21 22 21 19 19 20 20 20 20 20 19 19 20 20 19 19 19 19 19 18 18 19 19 19 20 20
31 30 31 33 32 30 28 27 25 24 24 25 25 23 22 23 22 22 22 22 23 23 22 21 21 20 20 20 20 20 20 21 22 23 22 20 19 18 16 15 15 16 17 18 17 17 18 18 18 18 18 18 19 19 19 20 21 21 20 20 22 22 20 20 21 22 22 22 21 21 21 22 22 22 22 22 21 20 20 21 21 21 21 20 21
28 28 30 33 31 27 27 26 25 25 25 25 27 27 26 25 23 22 22 22 22 23 22 22 21 21 21 21 21 22 23 24 26 27 26 24 24 23 21 19 18 18 19 19 19 19 19 19 20 19 19 20 19 19 19 19 19 20 19 19 19 20 20 21 21 22 24 25 24 24 24 24 24 24 24 25 25 24 24 25 25 25 24 22 22
26 27 30 32 30 26 25 25 25 26 26 24 24 25 26 27 25 22 21 21 21 22 23 23 23 22 22 21 21 22 23 26 28 29 27 27 28 28 27 25 24 23 22 20 20 19 19 20 21 20 20 21 20 19 19 19 18 18 19 19 18 19 20 21 21 22 24 26 27 27 26 26 26 26 26 27 27 27 27 28 28 27 26 25 24
25 26 28 29 28 26 25 25 24 25 26 26 26 26 26 27 26 24 22 20 20 21 21 22 22 22 21 21 21 20 21 24 27 27 26 27 29 29 28 28 27 26 26 24 23 22 21 22 22 22 23 22 22 21 19 18 18 18 18 18 19 21 22 23 24 22 22 26 29 29 28 27 26 27 29 29 28 27 25 26 28 26 25 26 26
25 26 26 25 25 25 24 24 25 25 26 27 27 28 27 27 27 27 25 23 23 23 21 20 19 19 19 20 20 20 19 20 23 24 23 24 26 28 27 27 26 26 26 26 26 25 25 25 25 26 26 25 25 24 22 20 19 19 20 20 20 21 24 26 27 26 23 26 30 30 30 29 24 24 28 28 28 27 25 24 26 25 24 25 26
22 24 23 22 22 22 22 23 23 24 26 26 26 26 27 27 27 28 29 27 27 28 26 23 21 20 21 23 22 20 19 19 20 21 21 22 23 25 25 25 26 26 26 26 27 27 27 28 28 29 29 28 28 28 25 24 23 23 23 23 22 22 23 25 28 28 27 29 32 31 32 32 25 23 27 26 26 28 28 26 26 25 24 24 25
19 21 21 20 20 21 22 22 23 24 24 25 25 25 25 26 26 27 30 29 28 28 28 28 28 27 26 28 27 25 24 24 23 23 23 22 22 23 24 25 25 25 24 24 25 25 26 28 29 30 30 30 30 29 27 26 26 26 25 26 27 27 27 28 30 31 30 31 32 31 33 34 28 24 26 26 24 25 27 28 28 27 25 24 25
18 19 20 21 21 22 22 22 23 24 24 24 24 24 24 25 25 26 29 30 29 27 25 27 31 31 30 29 29 28 28 28 27 27 26 25 24 23 25 26 24 24 25 25 24 25 26 27 27 28 30 30 29 30 30 28 28 27 25 25 26 26 28 30 31 30 29 27 26 27 30 32 28 24 25 26 24 24 27 28 30 31 29 25 25
17 19 20 21 22 22 22 22 23 24 24 23 24 24 24 24 26 27 28 29 30 29 28 29 32 32 31 31 30 28 28 28 28 27 27 26 24 24 27 27 26 26 28 28 27 28 28 27 28 28 29 30 30 30 31 30 29 28 27 27 28 26 27 29 29 28 28 27 25 25 27 31 31 27 27 28 26 25 28 30 30 32 32 29 26
16 18 19 20 21 22 22 22 23 24 24 24 24 24 23 23 25 27 28 29 29 28 27 30 31 30 30 31 29 28 27 27 28 28 27 26 24 25 27 27 26 27 28 27 28 29 28 27 28 28 29 30 31 32 33 32 32 31 31 33 33 31 31 33 32 30 29 30 29 27 27 32 35 32 28 27 27 27 27 27 26 29 32 31 28
14 15 17 19 21 21 22 23 23 24 24 24 25 25 24 23 25 27 29 29 28 26 25 26 28 29 30 31 30 29 28 28 28 29 28 27 25 26 27 25 24 26 27 26 27 28 27 28 28 28 29 30 31 32 33 34 33 32 32 34 34 34 35 37 37 34 35 37 35 30 29 30 33 33 28 26 27 28 26 23 22 25 28 30 30
Wind_Direction
184 182 184 175 161 175 185 182 186 183 180 184 184 185 186 184 180 182 182 176 174 176 181 182 175 176 181 181 184 182 187 191 190 199 193 203 194 180 173 168 167 163 161 159 152 146 140 133 125 117 109 100 96 90 86 90 92 89 81 71 69 67 68 71 74 80 78 78 84 82 76 73 69 64 62 63 68 74 82 89 99 115 124 128 130
175 176 178 171 161 169 180 178 181 181 181 183 181 181 180 176 175 178 176 163 162 177 175 176 178 182 183 179 186 188 186 186 186 195 186 187 195 188 180 175 173 169 166 164 159 153 142 137 132 122 114 104 97 88 77 76 83 89 91 85 72 69 71 68 69 78 83 85 88 84 78 73 70 66 63 62 63 66 72 81 91 102 117 128 132
173 173 175 169 163 166 173 176 176 174 176 177 177 177 173 171 171 172 169 157 163 179 171 176 185 183 187 182 187 187 180 180 179 180 178 189 198 193 185 179 175 172 170 168 163 157 147 142 140 131 122 112 100 85 70 64 70 78 87 96 91 74 70 66 67 76 86 91 89 83 77 75 72 69 66 63 60 60 62 68 78 90 106 121 133
173 170 175 170 166 170 170 173 176 173 171 171 172 174 171 170 168 166 166 159 168 180 172 177 186 184 188 186 187 183 178 178 173 176 179 194 196 189 182 177 178 177 169 168 165 161 155 150 148 140 131 125 117 98 83 65 62 69 76 79 78 75 72 64 64 72 80 89 90 84 78 77 76 73 67 62 58 54 53 56 61 72 86 105 124
170 169 178 172 168 174 170 168 176 174 169 168 170 174 170 167 164 162 164 163 174 181 175 180 188 187 188 189 189 181 177 177 173 175 177 186 189 186 179 169 173 178 173 170 167 168 167 166 169 159 157 157 158 161 159 108 42 45 52 58 49 40 67 64 62 69 72 81 89 87 82 81 79 76 67 60 58 53 48 48 49 55 63 80 104
176 175 174 170 169 173 169 166 174 175 168 166 169 171 166 163 162 163 167 169 180 185 183 190 191 190 192 191 186 182 180 176 174 175 174 178 180 184 183 172 172 171 170 176 175 195 213 209 209 202 201 197 198 206 211 218 237 329 352 21 27 20 49 64 61 63 63 73 86 86 83 85 82 76 67 59 57 56 51 47 45 47 51 58 76
181 178 167 166 167 168 169 170 174 174 170 167 167 167 164 164 163 167 175 178 186 191 191 195 194 193 195 193 188 185 181 177 176 175 177 178 178 185 184 183 191 184 171 182 196 209 240 246 237 236 232 229 224 223 224 224 222 233 304 314 308 323 16 68 88 81 60 66 77 83 80 85 86 78 69 62 57 58 56 51 48 46 46 47 47
180 176 165 163 163 166 171 175 175 172 170 169 167 166 163 167 169 171 182 186 190 196 196 197 197 195 195 193 190 185 181 182 182 178 181 177 176 186 184 180 190 200 187 186 207 174 138 136 73 22 328 251 234 229 230 228 225 231 269 291 280 275 279 348 76 210 170 89 79 85 75 78 90 84 74 67 59 58 61 56 51 49 46 47 46
177 170 162 163 165 169 173 174 173 168 169 168 166 165 164 172 177 176 185 189 191 195 196 196 194 192 193 189 187 187 185 188 188 188 189 181 178 178 181 186 184 189 173 174 212 166 129 115 61 21 15 9 255 238 235 237 242 248 265 275 270 263 251 261 286 275 236 155 137 168 98 76 85 86 79 73 64 60 62 61 54 50 49 50 49
176 168 163 167 168 170 172 170 169 166 167 166 165 166 168 175 182 184 185 185 191 193 190 191 191 189 189 187 187 189 187 193 196 193 187 183 184 174 173 184 172 172 169 171 192 195 173 150 238 301 346 8 11 307 259 250 254 258 264 266 260 252 241 226 236 248 246 201 173 186 186 104 76 72 80 75 69 63 61 63 57 51 50 50 50
176 171 166 168 168 168 169 167 167 165 163 165 168 171 174 174 181 192 189 184 188 190 186 185 188 188 187 188 191 192 192 196 195 191 188 188 189 181 180 180 171 187 185 175 184 229 248 214 247 274 302 304 303 306 296 283 269 264 264 264 260 254 244 219 218 223 228 229 180 191 204 149 89 60 88 87 75 69 63 62 59 54 50 48 50
175 172 167 167 168 169 167 165 165 164 164 168 171 175 180 174 178 190 188 187 189 187 186 184 187 192 193 193 192 194 197 196 195 194 190 190 193 186 189 187 179 192 196 196 205 238 269 280 281 295 300 283 275 275 285 286 274 261 259 265 268 266 256 229 208 214 227 241 189 197 215 177 122 67 102 116 92 81 72 66 60 55 51 49 50
176 174 171 170 171 170 168 167 165 165 168 170 170 176 181 178 182 184 178 180 184 185 187 184 188 193 195 198 194 194 197 194 196 199 192 190 195 189 190 192 190 195 200 221 231 219 245 280 310 330 286 280 282 285 283 272 261 249 247 266 275 276 264 236 208 201 220 232 203 202 222 203 172 168 176 161 112 100 92 78 65 56 52 49 50
178 177 175 173 173 172 171 169 168 170 173 173 174 178 180 180 183 179 174 177 176 182 186 182 190 193 190 194 189 183 190 197 199 201 195 188 191 192 193 192 194 201 201 228 275 302 213 266 301 300 285 295 272 270 281 269 247 240 246 265 276 282 270 228 204 192 206 214 203 195 221 223 200 192 192 187 164 136 124 104 79 62 54 49 50
179 177 177 176 175 175 174 173 173 176 178 177 178 179 180 179 180 174 173 180 178 181 187 183 186 190 189 191 186 177 176 199 207 201 192 184 184 186 188 193 194 202 208 227 272 286 228 238 263 273 287 327 286 259 284 282 257 241 263 280 277 281 268 221 199 190 201 209 205 198 219 235 215 204 204 200 197 180 162 153 118 65 54 51 53
180 179 178 177 177 177 176 177 179 178 177 178 178 179 181 177 179 177 169 173 182 182 185 186 187 188 190 188 182 177 172 195 207 197 185 187 184 175 177 188 191 196 208 223 240 236 236 220 219 260 285 309 287 298 84 282 284 267 273 282 273 271 249 215 200 191 198 206 211 217 225 229 215 210 219 225 218 199 192 199 202 48 36 48 59
181 182 180 179 179 178 179 181 182 178 176 181 178 178 182 175 179 181 168 166 178 180 182 189 199 194 192 188 175 177 180 184 191 190 187 182 174 175 186 177 170 185 188 189 217 201 216 209 202 244 276 267 279 13 107 256 287 298 291 280 249 261 229 215 206 196 199 206 212 221 225 224 218 216 227 234 231 217 206 208 221 245 332 21 48
184 186 183 181 180 180 183 184 183 180 178 182 181 180 182 179 183 179 167 169 172 177 183 184 195 194 191 199 177 169 168 157 164 183 199 165 155 169 185 161 153 172 172 154 166 157 167 185 190 211 226 235 269 85 141 231 264 275 286 295 15 289 225 211 211 205 202 210 215 220 221 221 220 220 230 235 235 232 223 219 223 232 251 293 320
188 189 187 186 183 183 186 184 183 185 182 180 185 184 180 183 187 177 172 183 177 174 182 174 180 191 192 202 197 174 164 139 154 172 177 154 158 161 155 153 153 149 138 128 135 136 144 158 164 177 194 220 180 126 175 234 269 245 236 306 360 314 243 216 215 215 211 214 220 223 221 221 229 228 230 236 237 237 236 236 236 237 241 244 260
191 192 191 190 188 187 188 186 183 188 188 184 185 185 181 187 191 181 179 186 179 175 185 174 175 186 190 193 195 197 167 145 153 171 167 156 156 145 137 148 144 130 127 120 123 128 131 144 149 158 178 208 173 143 178 222 287 309 333 8 360 335 264 232 218 220 220 221 225 229 225 226 239 242 235 236 238 237 238 246 253 256 257 256 260
194 195 194 193 193 191 192 191 186 187 190 188 187 187 187 194 194 184 181 182 179 182 191 183 178 179 181 182 189 196 175 156 157 188 183 161 152 147 143 149 141 131 137 129 128 129 124 136 147 154 177 202 168 140 175 209 36 332 344 15 7 354 296 246 227 224 228 229 231 234 234 236 245 248 247 244 241 235 232 240 249 258 267 270 270
198 198 197 196 196 195 196 196 192 191 191 190 190 191 195 197 191 185 187 187 185 186 189 192 188 183 180 174 181 186 181 176 166 174 184 170 163 150 141 146 142 136 143 136 136 138 127 137 152 162 178 183 160 151 191 204 126 235 304 1 7 2 355 269 239 230 234 238 239 240 239 243 249 252 250 245 243 239 233 234 238 243 255 263 268
202 202 201 200 199 198 198 199 199 197 196 194 192 196 201 199 193 195 197 193 190 185 189 201 194 191 188 182 191 189 170 184 173 154 160 162 232 151 125 128 132 131 140 141 141 150 141 142 150 157 168 166 183 202 233 259 119 193 292 360 357 352 74 60 241 237 245 253 256 255 248 243 244 249 248 242 242 244 239 235 237 238 243 254 262
204 205 205 204 203 202 199 200 202 202 202 198 193 199 206 201 200 206 203 197 196 189 187 198 196 196 195 189 199 201 180 181 173 158 148 133 212 228 107 111 132 128 131 143 150 158 156 159 152 141 161 172 203 256 286 303 314 324 351 358 336 242 189 164 148 224 243 259 273 273 265 253 244 244 247 245 242 244 245 244 243 244 244 249 255
203 206 208 206 207 207 202 200 203 204 205 202 195 196 199 198 206 210 205 203 202 195 191 195 199 199 197 194 198 199 190 187 183 170 142 134 182 202 93 126 173 125 120 148 160 151 139 143 142 131 143 165 218 279 307 263 278 310 337 342 343 289 229 215 208 230 265 280 285 283 275 264 251 246 246 246 244 245 250 252 250 250 248 248 249
207 206 208 207 208 211 208 205 205 206 207 205 201 199 195 193 204 207 205 207 206 202 200 198 204 202 197 201 198 199 196 187 199 197 167 169 183 166 115 174 219 133 129 151 156 130 119 116 118 110 86 129 231 286 286 228 263 295 311 321 334 306 267 243 231 243 273 288 290 285 277 267 256 250 247 244 244 248 254 254 253 254 253 251 248
214 210 209 207 207 212 213 210 209 209 210 210 208 209 205 200 202 203 202 210 213 209 204 202 208 204 201 207 202 203 204 198 210 216 208 213 186 163 154 162 249 180 141 149 168 143 111 126 127 102 50 54 28 341 343 269 271 294 296 285 292 295 282 260 249 250 264 279 289 287 278 268 260 251 247 242 241 248 251 249 249 251 253 254 253
216 215 214 211 207 210 213 213 212 211 211 213 210 211 215 210 208 209 202 203 216 213 206 207 210 205 204 210 208 207 208 209 218 218 216 225 197 183 185 163 229 274 298 180 199 221 188 193 172 115 355 15 24 12 360 331 298 306 309 266 263 287 292 270 262 258 263 275 287 292 284 269 262 256 251 243 240 246 251 251 250 251 251 252 254
216 216 218 217 212 210 211 212 214 213 211 213 212 210 216 214 212 216 209 200 210 215 210 210 212 209 210 211 209 213 215 215 222 227 222 223 222 229 236 218 218 261 287 281 272 261 229 241 265 255 284 330 343 336 353 352 332 325 324 277 263 290 308 293 281 274 274 282 288 295 290 271 262 262 259 252 247 248 253 254 254 255 256 256 255
215 215 218 221 219 215 213 210 212 215 213 213 213 212 217 215 211 218 215 206 208 214 212 212 215 215 215 214 211 212 218 220 223 229 225 222 229 238 244 239 230 252 276 286 289 283 263 267 275 272 291 310 280 273 309 331 339 335 313 259 256 284 307 305 296 289 284 286 290 295 293 278 267 265 266 265 260 256 256 255 255 255 256 257 259
216 216 220 222 221 219 217 212 211 215 215 213 213 213 216 216 211 214 217 213 212 215 214 212 216 220 218 216 215 213 216 220 222 225 226 226 229 234 241 242 241 249 260 270 277 282 283 285 288 279 284 287 257 260 272 280 302 319 305 281 277 292 305 303 298 296 291 287 287 290 291 284 274 269 269 270 267 263 260 258 257 255 255 257 258
219 219 223 222 219 218 219 215 212 213 216 214 212 213 215 214 211 211 215 218 218 217 218 215 214 221 222 218 219 219 217 220 224 227 229 230 232 236 240 243 247 253 254 259 268 276 281 283 288 287 278 275 269 265 263 266 280 291 288 290 298 297 297 301 300 295 292 290 287 287 287 284 279 272 270 271 269 265 261 260 259 258 257 257 255
222 218 223 223 218 217 218 216 213 213 215 214 211 213 216 215 212 209 208 217 221 219 220 220 215 219 223 219 219 222 223 224 227 231 233 234 235 239 240 241 247 253 253 257 265 274 278 277 280 283 283 283 278 274 273 268 268 277 278 278 286 286 284 291 293 292 292 289 286 285 284 283 280 276 273 271 268 265 264 263 262 261 260 258 256
224 218 220 222 218 216 217 216 214 214 214 214 211 211 215 216 215 211 207 214 222 219 217 218 216 216 222 223 222 225 229 231 231 232 235 235 238 240 238 241 248 251 252 255 262 269 274 276 277 278 281 284 281 280 285 280 267 272 277 273 273 276 273 274 277 281 287 289 284 281 279 277 277 276 275 272 269 266 265 264 263 262 262 261 260
226 220 218 221 218 214 215 216 215 214 214 215 213 212 214 216 216 214 212 215 222 220 215 217 217 217 221 225 227 227 229 233 233 234 237 237 239 240 240 243 249 254 253 256 261 264 269 273 274 276 278 280 281 281 286 286 278 275 277 272 269 271 270 268 268 272 280 288 284 276 273 272 272 273 274 273 272 269 267 266 264 263 261 261 261
225 219 215 216 216 214 213 214 215 215 214 215 215 213 214 216 217 216 214 214 219 218 216 218 220 220 222 225 227 227 228 231 231 231 235 236 236 239 243 247 250 254 255 256 261 265 269 271 271 274 275 276 280 280 280 283 282 279 277 272 269 271 273 274 269 268 277 287 282 274 271 268 268 270 271 272 274 273 271 269 266 265 264 261 260
225 219 214 212 212 214 214 212 213 216 215 214 216 215 214 216 218 217 216 215 217 217 216 217 218 220 222 223 225 226 227 229 229 230 232 234 236 238 242 245 248 251 252 253 257 261 266 269 272 275 276 277 280 281 282 283 279 275 276 274 270 269 272 277 277 273 276 282 280 277 276 272 271 271 270 270 271 272 272 271 269 267 266 264 262
225 221 219 215 210 214 216 213 210 214 216 216 218 218 216 217 220 220 219 219 219 219 218 218 219 220 221 222 224 226 227 227 228 230 230 231 235 239 242 245 246 249 251 253 257 261 264 269 273 275 276 277 278 278 281 282 275 268 271 274 273 271 271 273 277 275 275 279 280 281 281 279 277 275 274 272 272 271 271 271 270 268 267 266 265
225 221 220 216 209 210 216 216 211 211 215 217 220 220 218 217 220 221 221 221 222 222 221 221 221 222 224 225 226 226 228 229 230 232 233 234 236 238 242 247 249 250 252 254 258 262 265 268 271 273 274 275 276 276 276 278 276 269 265 268 271 273 274 275 275 273 272 275 280 283 285 283 280 278 277 275 272 270 269 270 271 271 270 269 267
222 220 217 213 212 213 216 219 217 213 214 215 216 218 219 218 220 222 222 222 223 224 225 225 224 225 225 227 229 229 229 230 231 231 232 234 238 240 242 248 252 253 255 256 257 259 261 264 267 269 270 270 272 273 272 274 276 273 269 268 268 268 270 274 276 275 271 271 275 280 283 283 282 280 278 275 272 270 269 270 271 271 271 271 270
217 217 213 210 213 215 215 219 219 214 215 218 216 215 217 218 219 222 224 223 223 224 225 226 227 228 228 228 230 230 231 232 234 235 235 235 238 242 245 249 253 254 257 260 258 257 258 261 263 265 266 267 268 270 269 269 272 274 273 271 270 269 268 268 271 273 273 272 273 274 276 279 282 281 277 273 269 267 267 267 268 270 271 272 273
213 212 210 209 211 213 213 214 213 212 218 225 224 220 218 218 218 221 225 225 224 225 225 225 227 229 230 231 232 233 234 236 239 242 243 242 245 249 251 252 252 253 257 260 258 256 256 258 261 262 264 265 265 266 267 267 269 272 271 268 267 269 270 269 268 270 274 275 276 276 276 277 279 279 277 274 272 269 267 267 268 271 273 273 272
207 206 206 207 209 209 209 208 208 211 219 226 226 222 222 222 220 219 223 226 225 225 225 226 228 229 231 233 234 235 237 240 244 248 250 250 252 254 256 256 254 252 254 254 253 253 254 256 259 259 260 263 264 264 265 267 267 268 269 266 263 262 265 267 268 270 273 275 278 280 281 280 280 280 278 277 277 275 273 273 273 273 273 272 270
203 201 202 203 203 202 204 206 209 214 220 224 225 225 226 226 224 221 222 225 228 228 227 227 229 230 231 232 233 234 236 242 249 252 253 254 256 256 257 259 257 253 253 253 251 249 250 252 256 257 258 260 262 262 263 265 266 267 267 265 263 263 265 267 267 267 269 274 278 281 281 281 281 282 282 283 283 281 278 276 277 277 274 272 270
200 197 198 200 201 202 206 210 212 214 218 222 224 227 228 227 225 223 223 224 228 228 226 227 229 229 229 230 231 231 233 240 248 251 250 253 256 257 257 257 257 256 255 255 254 252 251 252 254 257 258 260 262 262 262 263 265 267 269 269 267 267 270 274 273 270 268 270 275 278 278 278 276 276 279 283 285 286 284 280 279 279 277 275 272
196 195 199 201 202 205 210 214 215 216 220 222 222 225 227 226 225 225 225 225 227 228 226 225 226 226 227 229 231 232 232 235 241 247 248 248 252 256 256 255 256 257 256 256 255 255 254 253 253 256 258 260 262 263 263 264 266 269 271 272 271 267 269 273 275 274 271 269 273 275 275 276 274 269 272 275 278 282 286 285 281 279 277 276 275
189 193 199 202 205 210 213 216 218 220 222 224 224 225 228 230 228 227 227 228 230 231 231 231 232 233 233 234 236 238 238 239 240 244 246 248 250 253 254 255 256 256 255 254 254 254 254 254 256 259 260 260 260 262 263 264 267 270 271 271 272 269 267 268 271 274 274 274 276 275 274 277 276 267 268 272 271 275 283 285 284 283 280 277 276
193 195 200 205 210 215 217 219 222 225 226 227 227 228 231 234 232 230 229 230 230 231 232 233 236 238 238 239 240 242 242 244 245 246 247 249 251 252 253 254 254 253 253 252 251 251 253 255 257 259 262 263 262 262 263 264 267 270 271 271 271 270 269 269 270 272 273 273 272 270 272 277 277 268 268 271 270 271 276 279 281 283 283 281 278
202 204 206 209 214 217 220 221 224 227 229 231 232 233 234 234 232 231 232 233 234 234 234 236 238 238 239 240 242 243 244 245 247 248 249 249 250 251 252 253 253 254 255 256 255 254 255 258 257 257 260 264 264 262 263 264 265 268 268 267 266 265 265 266 267 269 273 272 267 264 268 274 276 273 272 273 272 271 274 276 278 282 285 285 281
210 213 212 213 215 218 219 221 224 228 230 232 235 237 237 234 230 231 233 235 236 237 237 241 241 239 240 242 242 242 244 247 248 249 248 248 248 249 251 253 254 255 256 257 257 257 259 261 261 260 263 265 264 263 262 263 264 267 267 266 266 266 265 265 267 269 271 271 268 267 270 273 275 277 275 273 273 272 271 273 273 276 283 286 283
216 220 220 219 220 221 222 224 227 230 231 233 235 237 238 235 231 231 232 233 235 236 235 239 240 239 241 245 245 244 245 246 247 246 246 247 247 248 251 252 254 255 256 256 258 259 262 264 265 267 269 269 267 265 263 262 263 264 263 263 265 267 267 270 271 267 265 268 270 271 271 271 272 274 274 271 273 273 270 266 265 268 276 283 285